IUS DEB, 43362

Orbit data source: Space-Track

IUS DEB, 43362 is space debris originally from a launch on Fri, 23 Jul 1999 UTC launched from the Air Force Eastern Test Range (AFETR). Debris objects in space refer to the collection of defunct objects orbiting the Earth. Examples of debris include non-operational satellites, rocket bodies, and fragments generated from explosions, collisions, or faulty payload assembly.

Loading next visibility...
Identifier
43362, 1999-040K
Orbit
Active
Country
Flag of USUS
Related business
Manufacturer
Boeing/Kent
Mission
Spacecraft
Bus & Motor
Unknown
Mass
Unknown
Launch date (UTC)
1999-07-23 (27 years ago)
Launch vehicle
Unknown
Launch site
Air Force Eastern Test Range (AFETR)
Object type
Payload
Rocket body
Debris
Shape & HBR
Unknown shape, 0.1 m
Radar Cross Section
Small (<0.1 m²)

Expand to show TLE details & history
Last TLE update: 3 months ago

TLE from 3 months ago
0 IUS DEB
1 43362U 99040K   26173.28980411 -.00000607  00000-0 -62156-2 0  9999
2 43362  28.0274 190.4649 3645127 122.9407 277.4903  7.08847228268575
Epoch: 2026-06-22T06:57Z
TLE epoch observation values (Epoch: 2026-06-22T06:57:19.075Z)
Latitude
-0.00002°
Longitude
175.65753°
Altitude
5,997.413 km
Speed
5.441 km/s
True Right ascension
12h 41m 51s
True Declination
0° 00' 00"
Sunlit
Object was in daylight at epoch
Visualization orbit readout
Latitude
Unknown
Longitude
Unknown
Altitude
Unknown
Speed
Unknown
Apparent Right ascension
Unknown
Apparent Declination
Unknown
Sunlit
N/A
Visualization observer readout
Local Sidereal Time
16:01:49
Azimuth
Unknown
Elevation
Unknown
Doppler factor
Unknown
Orbital elements
Apogee altitude
9,246.1 km
Perigee altitude
898.457 km
Semi-major axis
11,450.416 km
Eccentricity
0.36451
Inclination
28.0274°
RAAN
190.4649°
Arg. of periapsis
122.9407°
True anomaly
237.10141°
Mean anomaly
277.4903°
Eccentric anomaly
257.12994°
Mean motion
1.77138 °/min
Orbital period
203.23 mins
BSTAR
-0.0062156
Loading maneuver chart data...
Computing Atmospheric mass density...
Loading historical data...
Loading historical data...
Loading historical data...
Loading historical data...
Loading historical data...
Loading historical data...
Loading historical data...

Documentation

Showing up to 5 results
|